www.pogodaiklimat.ru

Погода и климат >> Архив погоды >> Филиппины >> Аэропорт Ninoy Aquino


ПОГОДА в Аэропорту Ninoy Aquino

  • Прогноз погоды в Аэропорту Ninoy Aquino
  • Монитор погоды в Аэропорту Ninoy Aquino

АРХИВ ПОГОДЫ в Аэропорту Ninoy Aquino

Время (UTC), дата Ветер
(напр.,м/с)
 
Видим.   Явления Облачность Т
(С)
Тd
(С)
f
(%)
Тe
(С)
Тes
(С)
Комфортность P
(гПа)
Po
(гПа)
Тmin
(С)
Tmax
(С)
R
(мм)
R24
(мм)
S
(см)
09 10.09 З 3 10 км слаб. ливневой дождь {туман} 9/4 700 м
[Sc Ac As Cs]
+27.4 +24.2 83 +38 +39 очень
душно
1009.6 1007.9 0.0
12 10.09 З 20 10 км мгла {дождь} 9/4 700 м
[Sc Ac trans]
+27.0 +23.3 80 +36 +36 очень
душно
1011.3 1009.6 +28.3 0.0
15 10.09 СЗ 2 10 км мгла {туман} 8/4 700 м
[Sc Ac trans]
+26.8 +23.7 83 +37 +37 очень
душно
1011.7 1010.0
18 10.09 С 3 10 км мгла {туман} 9/4 700 м
[Sc Ac trans]
+26.1 +23.0 83 +35 +35 очень
душно
1010.8 1009.1
21 10.09 СЗ 1 10 км мгла {туман} 9/4 700 м
[Sc Ac trans]
+26.0 +23.1 84 +35 +35 очень
душно
1010.3 1008.6
00 11.09 СЗ 3 10 км мгла {туман} 10/4 700 м
[Cu Sc Ac As]
+27.2 +23.5 80 +37 +38 очень
душно
1011.3 1009.6 +25.3 0.0
03 11.09 З 4 10 км мгла {туман} 6/3 700 м
[Cu med, cong Ac trans]
+27.9 +23.6 77 +38 +45 очень
душно
1011.4 1009.7
06 11.09 З 7 10 км мгла {туман} 8/3 700 м
[Cu Sc Ac trans Cs]
+29.2 +25.1 79 +42 +44 опасность
перегрева
1008.8 1007.1
09 11.09 З 5 10 км слаб. дождь {туман} 10/4 660 м
[Sc Ac As]
+28.1 +25.4 85 +41 +41 опасность
перегрева
1008.3 1006.6 0.0
12 11.09 С 2 9000 м слаб. дождь {гроза} 10/4 660 м
[Sc As op]
+25.4 +23.3 88 +34 +34 очень
душно
1008.8 1007.1 +29.8 7
15 11.09 Ю 1 10 км мгла {дождь, туман} 10/4 700 м
[Sc Ac As]
+25.8 +23.9 89 +35 +35 очень
душно
1010.1 1008.4 0.0
18 11.09 ЮЗ 1 8000 м слаб. дождь 10/5 660 м
[Sc As op]
+25.6 +24.4 93 +36 +36 очень
душно
1007.4 1005.7 0.5
21 11.09 З 1 10 км мгла {дождь} 10/4 700 м
[Sc Ac As]
+26.3 +24.0 87 +36 +36 очень
душно
1005.8 1004.1 0.0
00 12.09 Ю 2 10 км мгла {дождь} 10/4 660 м
[Sc As op]
+26.7 +25.1 91 +38 +39 очень
душно
1007.7 1006.0 +24.3 7
03 12.09 10 км слаб. дождь н/о 1007.6 1005.9 2
06 12.09 З 3 8000 м слаб. дождь 10/5 660 м
[Sc As op]
+25.8 +23.7 88 +35 +36 очень
душно
1005.3 1003.6 16
09 12.09 З 4 9000 м в посл. час дождь 10/5 450 м
[Sc Ac As]
+26.6 +24.3 87 +37 +37 очень
душно
1004.9 1003.2 0.0
12 12.09 С 2 10 км мгла {дождь, туман} 8/3 700 м
[Sc Cs]
+26.1 +23.4 85 +35 +35 очень
душно
1005.0 1003.3 +26.8 0.0
15 12.09 С 2 10 км мгла {туман} 6/3 700 м
[Sc Ac trans]
+26.8 +22.5 77 +35 +35 очень
душно
1005.6 1003.9
18 12.09 Ю 1 10 км мгла {туман} 6/3 700 м
[Sc Ac trans]
+25.3 +23.9 92 +35 +35 очень
душно
1004.4 1002.7
21 12.09 В 1 9000 м мгла {туман} 8/3 700 м
[Sc Ac As]
+24.9 +23.8 94 +34 +34 очень
душно
1004.7 1003.0
00 13.09 В 2 9000 м мгла {туман} 8/3 700 м
[Sc Ac As]
+26.7 +24.2 86 +37 +39 очень
душно
1005.7 1004.0 +24.5 16
03 13.09 СЗ 1 10 км мгла {туман} 6/3 700 м
[Cu Sc Ac trans]
+30.5 +23.3 65 +41 +53 опасность
перегрева
1006.2 1004.5
06 13.09 ЮЗ 2 9000 м мгла {туман} 9/3 700 м
[Sc Ac As]
+30.2 +24.5 72 +43 +47 опасность
перегрева
1003.9 1002.2
09 13.09 ЮВ 1 10 км мгла {туман} 9/1 750 м
[Cu med, cong Ac As]
+29.4 +25.1 78 +43 +43 опасность
перегрева
1004.9 1003.2
12 13.09 Ю 2 10 км осадки на расстоянии {туман} 10/3 700 м
[Sc Ac As]
+27.8 +24.9 84 +40 +40 очень
душно
1006.9 1005.2 +30.8
15 13.09 ЮВ 1 10 км мгла {туман} 8/1 750 м
[Cu hum Ac trans]
+27.3 +24.4 84 +38 +38 очень
душно
1007.5 1005.8
18 13.09 10 км в посл. час ливневой дождь {туман} 9/1 750 м
[Sc Ac As Cs]
+26.6 +24.3 87 1006.1 1004.4 0.0
21 13.09 Ю 1 10 км мгла {туман} 9/4 700 м
[Sc Ac trans]
+26.3 +24.6 90 +37 +37 очень
душно
1006.6 1004.9
00 14.09 ЮВ 1 18 км в посл. час дождь {туман} 8/1 750 м
[Cu med, cong Ac As Ci sp]
+28.6 +24.5 79 +41 +44 опасность
перегрева
1007.7 1006.0 +25.0 5
03 14.09 ЮВ 3 15 км 5/4 750 м
[Cu med, cong Ci fib]
+32.3 +24.0 62 +44 +54 опасность
перегрева
1007.3 1005.6
06 14.09 ЮЗ 1 9000 м слаб. ливневой дождь {гроза} 9/4 700 м
[Cu Sc Ac As]
+25.6 +23.9 90 +35 +40 очень
душно
1006.2 1004.5 10
09 14.09 З 4 10 км мгла {дождь, туман} 10/5 600 м
[Cb cap Ac As]
+28.6 +25.5 83 +42 +42 опасность
перегрева
1007.0 1005.3 1
12 14.09 ЮЗ 2 10 км в посл. час дождь {ливн. осадки} 10/4 700 м
[Sc Ac As]
+26.6 +24.5 88 +37 +37 очень
душно
1009.1 1007.4 +32.6 2
15 14.09 ЮЗ 1 10 км мгла {дождь, туман} 9/4 660 м
[Sc Ac As]
+26.3 +24.7 91 +37 +37 очень
душно
1009.6 1007.9 0.5
18 14.09 ЮЗ 1 10 км в посл. час дождь {туман} 10/4 700 м
[Sc As op]
+25.5 +24.1 92 +35 +35 очень
душно
1008.5 1006.8 4
21 14.09 ЮВ 1 10 км мгла {туман} 10/6 700 м
[Sc As trans]
+25.9 +24.5 92 +36 +36 очень
душно
1007.8 1006.1
00 15.09 ЮЗ 2 10 км слаб. дождь 10/5 660 м
[Sc Ac As]
+26.9 +24.4 86 +38 +39 очень
душно
1009.2 1007.5 +25.3 7
03 15.09 ЮЗ 7 н/о дождь {ливн. осадки} 10/6 540 м
[Sc As op]
+25.4 +24.4 94 +35 +36 очень
душно
1008.7 1007.0 3
06 15.09 ЮЗ 6 10 км слаб. дождь 10/6 600 м
[Sc As op]
+29.2 +24.6 76 +41 +42 опасность
перегрева
1006.6 1004.9 6
09 15.09 ЮЗ 5 10 км 9/4 700 м
[Sc Ac As]
+27.8 +24.5 82 +39 +39 очень
душно
1005.9 1004.2 2
12 15.09 ЮЗ 2 9000 м слаб. дождь {туман} 10/4 600 м
[Sc Ac As]
+26.1 +24.5 91 +37 +37 очень
душно
1007.6 1005.9 +29.7 10
15 15.09 З 2 8000 м слаб. дождь 10/5 600 м
[Sc Ac As]
+25.6 +24.4 93 +36 +36 очень
душно
1008.3 1006.6 9
18 15.09 ЮЗ 3 9000 м слаб. дождь 10/5 540 м
[Sc Ac As]
+25.3 +24.0 93 +35 +35 очень
душно
1007.7 1006.0 15
21 15.09 З 5 5000 м сильн. дождь 10/6 600 м
[Sc As op]
+24.8 +24.3 97 +34 +34 очень
душно
1007.3 1005.6 21
00 16.09 З 4 2500 м дождь 10/6 600 м
[Sc As op]
+25.6 +24.8 95 +36 +36 очень
душно
1008.0 1006.3 +24.5 62
03 16.09 ЮЗ 5 9000 м слаб. дождь 9/6 600 м
[Sc As op]
+27.0 +25.3 90 +39 +41 очень
душно
1007.4 1005.7 2
06 16.09 З 3 н/о слаб. дождь 10/6 540 м
[Sc As op]
+26.0 +25.3 96 +38 +39 очень
душно
1005.1 1003.4 8
09 16.09 З 3 6000 м слаб. дождь 10/6 450 м
[Sc As op]
+26.0 +25.2 95 +37 +37 очень
душно
1005.1 1003.4 7
12 16.09 С 1 7000 м дождь 10/5 600 м
[Sc As op]
+26.1 +24.9 93 +37 +37 очень
душно
1006.0 1004.3 +27.5 13
15 16.09 штиль 0 10 км мгла {дождь, туман} 10/3 700 м
[Sc Ac As]
+26.2 +25.2 94 +38 +38 очень
душно
1006.5 1004.8 2
18 16.09 ЮЗ 2 10 км слаб. дождь {туман} 9/4 700 м
[Sc Ac As]
+25.7 +24.2 91 +36 +36 очень
душно
1005.6 1003.9 5
21 16.09 В 2 10 км {дождь} 9/4 600 м
[Sc Ac As]
+25.5 +24.1 92 +35 +35 очень
душно
1006.1 1004.4 0.0
00 17.09 ЮЗ 2 9000 м слаб. дождь 10/6 600 м
[Sc As op]
+25.9 +24.9 94 +37 +37 очень
душно
1007.7 1006.0 +24.7 33
03 17.09 ЮЗ 5 10 км мгла {дождь, туман} 9/6 600 м
[Sc Ac As]
+29.9 +24.7 74 +43 +45 опасность
перегрева
1006.4 1004.7 0.0
06 17.09 ЮЗ 4 10 км в посл. час дождь 9/4 660 м
[Sc Ac As]
+29.2 +24.4 75 +41 +44 опасность
перегрева
1005.6 1003.9 1

 

Местоположение метеостанции Аэропорт Ninoy Aquino (Филиппины): широта 14.52 долгота 121.00 высота над уровнем моря 15 м.

В архиве по умолчанию представлена погода в Аэропорту Ninoy Aquino за последнюю неделю. Архивные данные за месяц целиком и за предыдущие месяцы, начиная с января 2011 года, Вы можете получить, выбрав интересующий диапазон дат из раскрывающегося списка и нажав кнопку "Ввод!".


*Определитесь, кто Вы:
робот инопланетянин человек

Внимание! Время в таблицах - всемирное. Для получения местного времени необходимо прибавить поправку, которая равна 8 ч.

Смотрите также архив погоды в соседних городах и на ближайших метеорологических станциях:

Погода в Маниле (Филиппины) (7 км)
Погода в Сангли Пойнт (Филиппины) (10 км)
Погода в Научном саду (Филиппины) (12 км)
Погода в Танае (Филиппины) (38 км)
Погода на Амбулонге (Филиппины) (49 км)
Погода в Инфанте (Филиппины) (74 км)
Погода в Тайябасе (Филиппины) (83 км)
Погода в Куби Пойнт (Филиппины) (86 км)
Погода на Базе ВВС Clark (Филиппины) (86 км)
Погода в Кабанатуане (Филиппины) (107 км)

Пояснения к столбцам:

Ветер - указаны скорость ветра в м/с - средняя за 10 мин, порывы в срок и между сроками (в фигурных скобках) и направление, откуда дует ветер: С - северный, СВ - северо-восточный, В - восточный, ЮВ - юго-восточный, Ю - южный, ЮЗ - юго-западный, З - западный, СЗ - северо-западный.
Видимость - горизонтальная дальность видимости в метрах или километрах. При видимости от 1 до 10 км при отсутствии осадков обычно наблюдается дымка, при ухудшении видимости до 1 км и менее - туман. В сухую погоду видимость может ухудшаться дымом, пылью или мглою.
Явления - указаны атмосферные явления, наблюдавшиеся в срок или в последний час перед сроком; фигурными скобками обозначены явления, наблюдавшиеся между сроками (за 1-3 часа до срока); квадратными скобками обозначены град или гололедные отложения с указанием их диаметра в мм.
Облачность - указаны через наклонную черту общая и нижняя облачность в баллах и высота нижней границы облаков в метрах; квадратными скобками обозначены формы облаков: Ci - перистые, Cs - перисто-слоистые, Cc - перисто-кучевые, Ac - высококучевые, As - высокослоистые, Sc - слоисто-кучевые, Ns - слоисто-дождевые, Cu - кучевые, Cb - кучево-дождевые. Подробнее классификацию облаков см. в Атласе облаков (PDF).
T - Температура воздуха - температура, измеренная на высоте 2 м над землей.
Td - Температура точки росы - температура, при понижении до которой содержащийся в воздухе водяной пар достигнет насыщения.
f - Относительная влажность воздуха - влажноcть воздуха, измеренная на высоте 2 м над землей.
Te - Эффективная температура - температура, которую ощущает одетый по сезону человек в тени. Характеристика душности погоды. При расчете учитывается влияние влажности воздуха и скорости ветра на теплоощущения человека.
Tes - Эффективная температура на солнце - температура, которую ощущает человек, с поправкой на солнечный нагрев. Характеристика знойности погоды. Зависит от высоты солнца над горизонтом, облачности и скорости ветра. Ночью, в пасмурную погоду, а также при ветре 12 м/с и более поправка равна нулю.
P - Атмосферное давление - приведенное к уровню моря атмосферное давление.
Po - Атмосферное давление - измеренное на уровне метеостанции атмосферное давление.
Tmin - Минимальная температура - минимум температуры воздуха на высоте 2 м над землей.
Tmax - Максимальная температура - максимум температуры воздуха на высоте 2 м над землей.
R - Количество осадков - Количество выпавших осадков за период времени, мм. При наведении курсора мыши на число - период времени, за который выпало указанное количество осадков.
R24 - Количество осадков - Количество выпавших осадков за 24 часа, мм.
S - Снежный покров - Высота снежного покрова, см. При наведении курсора мыши на число - состояние снежного покрова и степень покрытия местности в баллах.